Fairbanks Eiels, AK

4:18 AM AKDT on July 29, 2017 (GMT -0800)
Eielson Air Force Base

Weather History for PAEI - June, 2014

Change the Weather History Date:

Friday, June 6, 2014

  Actual Average Record
Temperature  
Mean Temperature 58 °F -  
Max Temperature 69 °F 66 °F 86 °F (1957)
Min Temperature 48 °F 46 °F 32 °F (1963)
Degree Days  
Heating Degree Days 6    
Growing Degree Days 8 (Base 50)    
Moisture  
Dew Point 45 °F    
Average Humidity 72    
Maximum Humidity 100    
Minimum Humidity 33    
Precipitation  
Precipitation 0.00 in - - ()
Sea Level Pressure  
Sea Level Pressure 29.90 in    
Wind  
Wind Speed 2 mph (SE)    
Max Wind Speed 9 mph    
Max Gust Speed -    
Visibility 7 miles    
Events Rain    
Averages and records for this station are not official NWS values.
T = Trace of Precipitation, MM = Missing Value Source: NWS Daily Summary

Daily Weather History Graph

Daily Weather History Graph

Search for Another Location

Airport or City:

Trip Planner

Search our weather history database for the weather conditions in past years. The results will help you decide how hot, cold, wet, or windy it might be!

Date:

Astronomy

Jun. 06, 2014 Rise Set
Actual Time 3:19 AM AKDT 12:16 AM AKDT
Civil Twilight Sun does not set Sun does not set
Nautical Twilight Sun does not set Sun does not set
Astronomical Twilight Sun does not set Sun does not set
Moon 2:52 PM AKDT (6/6) 2:18 AM AKDT (6/6)
Length of Visible Light 24h 00m
Length of Day
20h 56m
First Quarter, 59% of the Moon is Illuminated
Jun 6
First Quarter
Jun 12
Full
Jun 19
Last Quarter
Jun 27
New
Jul 5
First Quarter

Hourly Weather History & Observations

Time (AKDT) Temp. Dew Point Humidity Pressure Visibility Wind Dir Wind Speed Gust Speed Precip Events Conditions
12:13 AM 51.8 °F 50.0 °F 94% 29.97 in 8.0 mi Calm Calm - N/A Rain Light Rain
12:20 AM 51.8 °F 50.0 °F 94% 29.97 in 9.0 mi Calm Calm - N/A Rain Light Rain
12:35 AM 50.0 °F 50.0 °F 100% 29.97 in 5.0 mi Calm Calm - N/A Rain Light Rain
12:50 AM 50.0 °F 50.0 °F 100% 29.96 in 4.0 mi WNW 1.2 mph - N/A   Scattered Clouds
12:58 AM 50.5 °F 49.1 °F 95% 29.98 in 3.0 mi ESE 1.2 mph - 0.00 in   Scattered Clouds
1:13 AM 50.0 °F 48.2 °F 94% 29.97 in 2.5 mi Variable 4.6 mph - N/A Rain Light Rain
1:28 AM 50.0 °F 48.2 °F 94% 29.96 in 2.0 mi Variable 3.5 mph - N/A Rain Light Rain
1:43 AM 50.0 °F 48.2 °F 94% 29.96 in 2.5 mi Variable 3.5 mph - N/A   Mostly Cloudy
2:43 AM 50.0 °F 48.2 °F 94% 29.96 in 6.0 mi South 1.2 mph - N/A   Overcast
2:58 AM 49.3 °F 48.2 °F 96% 29.97 in 4.0 mi Variable 1.2 mph - 0.00 in   Mostly Cloudy
3:13 AM 50.0 °F 48.2 °F 94% 29.96 in 2.5 mi SSE 2.3 mph - N/A   Mostly Cloudy
4:28 AM 48.2 °F 48.2 °F 100% 29.95 in 2.0 mi South 5.8 mph - N/A   Overcast
4:58 AM 48.7 °F 47.5 °F 95% 29.97 in 1.8 mi Variable 5.8 mph - 0.00 in   Mostly Cloudy
5:58 AM 48.7 °F 47.7 °F 96% 29.96 in 1.5 mi SSE 3.5 mph - N/A   Clear
6:43 AM 50.0 °F 48.2 °F 94% 29.94 in 1.8 mi SSE 3.5 mph - N/A   Clear
6:58 AM 49.8 °F 48.2 °F 94% 29.96 in 10.0 mi Variable 4.6 mph - N/A   Mostly Cloudy
7:58 AM 52.9 °F 49.5 °F 88% 29.96 in 10.0 mi SE 2.3 mph - N/A   Mostly Cloudy
8:24 AM 53.6 °F 50.0 °F 88% 29.94 in 10.0 mi East 2.3 mph - N/A   Mostly Cloudy
8:58 AM 55.0 °F 50.0 °F 83% 29.95 in 10.0 mi NE 2.3 mph - N/A   Mostly Cloudy
9:58 AM 58.3 °F 49.1 °F 71% 29.94 in 10.0 mi Variable 6.9 mph - N/A   Mostly Cloudy
10:43 AM 59.0 °F 42.8 °F 55% 29.91 in 10.0 mi East 3.5 mph - N/A   Mostly Cloudy
11:58 AM 61.2 °F 39.6 °F 45% 29.91 in 10.0 mi NNW 4.6 mph - N/A   Mostly Cloudy
12:58 PM 62.4 °F 39.9 °F 44% 29.88 in 10.0 mi Variable 2.3 mph - N/A   Mostly Cloudy
1:58 PM 66.0 °F 40.3 °F 39% 29.85 in 10.0 mi Variable 5.8 mph - N/A   Clear
2:58 PM 68.4 °F 40.1 °F 36% 29.84 in 10.0 mi South 9.2 mph - N/A   Mostly Cloudy
3:58 PM 69.1 °F 39.7 °F 34% 29.82 in 10.0 mi Variable 1.2 mph - N/A   Mostly Cloudy
4:58 PM 68.5 °F 38.1 °F 33% 29.80 in 10.0 mi Variable 4.6 mph - N/A   Clear
5:58 PM 68.0 °F 38.3 °F 34% 29.79 in 10.0 mi West 2.3 mph - N/A   Partly Cloudy
6:58 PM 67.6 °F 39.4 °F 36% 29.78 in 10.0 mi NNE 3.5 mph - N/A   Partly Cloudy
7:58 PM 68.2 °F 40.5 °F 36% 29.77 in 10.0 mi ESE 5.8 mph - N/A   Clear
8:58 PM 66.7 °F 37.9 °F 35% 29.77 in 10.0 mi NW 8.1 mph - N/A   Partly Cloudy
9:58 PM 64.0 °F 38.1 °F 38% 29.77 in 10.0 mi NW 8.1 mph - N/A   Clear
10:58 PM 59.9 °F 40.6 °F 49% 29.77 in 10.0 mi North 1.2 mph - N/A   Clear
11:58 PM 51.3 °F 42.4 °F 72% 29.78 in 10.0 mi Calm Calm - N/A   Clear